Location: State Camp
(41.2367°N, 77.7828°W)
Time: 13:17:56
(UTC-04:00)

Daily predictions for brighter satellites

Satellite Brightness Start Highest point End
(mag) Time Altitude Azimuth Time Altitude Azimuth Time Altitude Azimuth
Cosmos 1340 Rocket 3.5 20:57:09 10° SSW 21:01:06 61° WNW 21:05:07 10° N
Sich 1 Rocket 4.3 20:57:09 10° SSE 21:01:20 36° E 21:05:32 10° NNE
SL-08 ROCKET BODY 4.4 20:57:23 10° S 21:03:19 65° E 21:09:12 10° NNE
PSLV R/B 4.4 21:01:08 10° W 21:04:15 33° SSW 21:07:25 10° SE
Cosmos 1356 Rocket 3.6 21:00:17 10° S 21:04:31 87° WNW 21:08:50 10° N
Cosmos 1892 2.8 21:00:52 10° S 21:04:42 88° WNW 21:08:34 10° N
NOSS 2-2 (E) 4.1 21:03:24 10° SW 21:07:32 66° NW 21:12:26 10° NNE
Cosmos 1782 3.0 21:05:33 10° N 21:09:33 56° E 21:13:30 10° SSE
Envisat 3.5 21:06:56 10° SE 21:11:44 44° ENE 21:16:32 10° N
ERBS 3.8 21:10:30 10° WNW 21:13:39 33° SW 21:16:47 10° SSE
GPS 2-05 Rocket1 4.2 21:11:28 10° SW 21:14:33 25° SSE 21:17:32 10° ESE
H-2A R/B 3.8 21:11:32 10° S 21:15:05 44° W 21:18:40 10° NNW
CZ-4 DEB 2.8 21:12:06 10° S 21:15:15 80° WSW 21:18:26 10° NNW
COSMOS 2487 4.0 21:12:29 10° N 21:15:24 23° ENE 21:18:09 11° ESE
Cosmos 1624 Rocket 4.4 21:10:35 10° SSW 21:15:50 73° WNW 21:21:11 10° NNE
Atlas Centaur 2 3.0 21:13:52 10° SW 21:15:52 14° S 21:17:53 10° SSE
Cosmos 1975 Rocket 4.3 21:16:35 10° NNE 21:20:06 24° ENE 21:23:14 12° SE
Coronas F rocket 2.9 21:17:52 10° SSW 21:20:20 37° W 21:22:51 10° N
Cosmos 1939 Rocket 2.9 21:18:22 10° SSE 21:22:09 57° ENE 21:26:02 10° N
ARGOS 4.5 21:23:42 11° ESE 21:27:41 24° ENE 21:31:52 10° NNE
ATLAS 5 CENTAUR R/B 3.1 21:21:54 10° NW 21:27:46 51° WSW 21:33:58 10° SSE
ERS-1 Rocket 3.0 21:24:13 10° SSE 21:29:16 86° WSW 21:34:20 10° NNW
Cosmos 2084 3.3 21:25:36 10° SSW 21:29:21 50° ESE 21:33:05 10° NE
Cosmos 407 Rocket 3.5 21:24:10 10° NNW 21:29:28 88° ENE 21:34:48 10° SSE
Cosmos 1908 Rocket 3.7 21:25:35 10° S 21:29:53 57° E 21:34:15 10° NNE
Meteor 2-6 Rocket 4.4 21:24:06 10° N 21:30:05 90° W 21:35:54 10° S
NOSS 5 (C) 4.2 21:28:31 10° SSW 21:31:58 62° ESE 21:35:02 10° NE
Cosmos 1733 Rocket 3.7 21:27:40 10° SSW 21:32:00 58° W 21:36:21 10° N
Cosmos 1378 Rocket 3.8 21:28:05 10° N 21:32:17 49° E 21:36:03 12° SSE
Cosmos 1140 Rocket 4.2 21:30:35 10° N 21:35:22 38° ENE 21:39:06 16° SE
H-2A R/B 4.0 21:32:53 10° E 21:35:52 15° ENE 21:38:50 10° NNE
deb Chang Zheng 4 3.6 21:32:36 10° NNE 21:37:01 69° ESE 21:41:26 10° S
Cosmos 1452 Rocket 3.5 21:34:43 10° S 21:39:56 73° ESE 21:45:13 10° NNE
USA 234 4.5 21:36:22 10° E 21:40:25 17° ESE 21:44:00 11° SSE
COSMOS 2406 4.3 21:36:24 10° NW 21:41:48 43° WSW 21:47:08 10° S
Nimbus 7 Rocket 4.4 21:36:31 10° NNE 21:42:26 67° ESE 21:48:23 10° S
Cosmos 2154 Rocket 3.9 21:36:39 10° S 21:42:50 75° E 21:49:03 10° N
USA 245 4.4 21:44:17 19° ESE 21:45:55 27° ENE 21:49:21 10° N
YAOGAN 6 3.3 21:44:08 20° SE 21:46:03 36° ENE 21:49:19 10° N
Cosmos 1408 2.5 21:44:03 10° S 21:47:40 64° E 21:51:18 10° NNE
CZ-4B R/B 4.2 21:44:03 10° NE 21:48:25 31° E 21:51:12 18° SSE
Cosmos 1833 Rocket 4.2 21:44:01 10° N 21:48:29 24° NE 21:52:00 14° E
Cosmos 1242 Rocket 3.4 21:45:28 10° N 21:48:49 33° ENE 21:50:30 22° ESE
Cosmos 2278 Rocket 2.2 21:44:36 10° SSW 21:50:13 68° ESE 21:55:52 10° NNE
SPOT 1/Viking Rocket 4.2 21:47:23 18° SE 21:50:53 41° ENE 21:55:45 10° N
Cosmos 1825 2.1 21:48:13 10° S 21:52:01 76° E 21:55:51 10° N
CZ-4 SHROUD 3.5 21:50:45 25° SE 21:52:11 46° ENE 21:55:11 10° N
Cosmos 1844 Rocket 3.4 21:47:50 10° SW 21:53:23 56° WNW 21:58:56 10° NNE
Intercosmos 25 3.7 21:52:53 23° SE 21:54:26 34° E 21:57:21 10° NNE
Cosmos 1844 4.0 21:49:23 10° SSW 21:55:08 74° WNW 22:00:58 10° NNE
PSLV R/B 3.1 21:55:39 29° SE 21:56:55 60° ENE 21:59:50 10° N
MetOp-A 4.1 21:52:41 16° SSE 21:56:56 70° ENE 22:02:16 10° N
H-2A R/B 2.4 21:55:26 11° S 21:59:29 63° WSW 22:03:42 10° NNW
Cosmos 1184 Rocket 2.7 21:59:21 15° S 22:02:04 84° E 22:05:26 10° N
Cosmos 2082 Rocket 2.9 22:04:40 10° N 22:10:04 41° ENE 22:13:01 24° ESE
Cosmos 2366 rocket 4.5 22:07:19 22° SE 22:10:56 42° E 22:16:48 10° NNE
Cosmos 1850 Rocket 4.2 22:07:19 10° NNW 22:12:36 61° ENE 22:15:25 27° SE
Terra 3.2 22:13:28 20° E 22:15:06 25° ENE 22:18:56 10° NNE
Cosmos 1812 4.5 22:13:20 10° NNE 22:16:00 18° ENE 22:16:16 18° ENE
Cosmos 1238 Rocket 3.1 22:12:51 10° NNW 22:16:04 53° W 22:18:32 19° SSW
ISS -2.8 22:13:12 10° WSW 22:16:26 59° NNW 22:19:39 10° NE
SL-08 RB Rocket 4.0 22:17:18 31° SE 22:19:14 53° ENE 22:23:45 10° N
Cosmos 1954 Rocket 4.4 22:14:21 10° NNW 22:19:27 58° WSW 22:23:04 19° S
SPOT 5 3.5 22:15:48 15° S 22:20:03 62° W 22:25:24 10° NNW
Cosmos 2297 3.6 22:19:39 10° S 22:25:17 67° ESE 22:30:59 10° NNE
USA 229 DEB 4.1 22:18:21 10° NNW 22:25:19 55° NE 22:29:26 26° ESE
USA 229 4.2 22:18:27 10° NNW 22:25:25 54° NE 22:29:32 25° ESE
Okean 2 Rocket 3.4 22:25:23 13° SSW 22:29:12 65° W 22:33:36 10° N
Okean 3 4.4 22:25:31 10° NNW 22:29:37 46° W 22:32:25 19° SSW
OAO 3 Rocket 4.2 22:26:49 10° SW 22:30:20 28° S 22:30:20 28° S
Cosmos 1741 Rocket 3.9 22:27:43 10° NNW 22:32:59 89° ENE 22:35:15 35° SSE
NOAA 11 4.1 22:30:26 29° SSE 22:33:19 86° ENE 22:38:51 10° NNW
Cosmos 2218 Rocket 4.0 22:33:57 21° S 22:38:23 79° E 22:44:48 10° N
CZ-4C R/B 3.4 22:43:58 55° ESE 22:44:26 60° ENE 22:48:29 10° N
ASTEX 1 4.3 22:40:47 10° NNE 22:45:09 30° E 22:45:20 30° E
BREEZE-M DEB (TANK) 2.9 22:37:19 10° WNW 22:47:19 67° SW 22:48:20 48° SSE
Cosmos 1110 Rocket 4.2 22:48:01 44° SE 22:48:49 48° ESE 22:53:49 10° NNE
BREEZE-M DEB (TANK) 4.2 22:49:10 10° NW 22:50:51 18° N 22:53:28 10° NE
DELTA 2 DEB (DPAF) 4.0 22:51:58 55° SSE 22:52:54 79° ENE 22:57:23 10° N
Cosmos 1727 Rocket 3.9 22:47:23 10° N 22:53:36 78° E 22:56:01 39° SSE
Cosmos 1959 Rocket 4.5 22:50:04 22° SSW 22:54:13 78° W 23:00:21 10° N
AVUM R/B 4.1 22:51:06 10° NNW 22:54:13 44° NE 22:54:13 44° NE
APEX 4.4 22:51:36 10° SW 22:55:25 50° WNW 23:00:25 10° NNE
DNEPR-1 R/B 4.4 22:52:22 10° NW 22:57:22 47° WSW 22:58:32 38° SSW
Cosmos 2369 Rocket 4.1 23:00:27 14° ENE 23:00:27 14° ENE 23:02:09 10° ENE
CARTOSAT-1 3.5 22:58:42 62° ESE 22:59:08 68° ENE 23:03:26 10° N
Meteor 2-19 Rocket 4.3 23:00:07 39° S 23:02:34 78° E 23:08:41 10° N
ARGOS 3.9 23:05:13 28° SSW 23:07:36 46° W 23:12:46 10° NNW
Cosmos 1536 Rocket 3.8 23:06:31 10° NNW 23:10:58 66° W 23:11:41 56° SW
Meteor 1-20 Rocket 4.1 23:11:44 47° S 23:13:26 87° E 23:18:59 10° N
Cosmos 1486 Rocket 4.4 23:09:11 10° N 23:14:21 48° ENE 23:15:08 45° E
H-2A R/B 2.1 23:13:15 50° S 23:14:39 77° WSW 23:19:59 10° NNW
Cosmos 1339 Rocket 4.4 23:11:51 10° N 23:18:01 83° W 23:20:00 47° S
Okean 1 3.4 23:18:51 10° N 23:22:36 74° NNW 23:22:36 74° NNW
USA 234 3.1 23:17:33 10° NE 23:24:06 73° SE 23:30:36 10° SW
Cosmos 1821 Rocket 4.2 23:27:02 48° ESE 23:27:46 50° E 23:33:44 10° NNE
Cosmos 1833 Rocket 3.0 23:27:17 10° NNW 23:32:45 54° WSW 23:33:42 48° SW
Cosmos 1943 Rocket 4.5 23:37:08 10° ENE 23:37:08 10° ENE 23:37:19 10° ENE
Cosmos 1934 Rocket 4.1 23:40:23 51° ESE 23:40:41 52° E 23:46:32 10° NNE
Cosmos 1302 Rocket 3.9 23:43:57 77° E 23:43:57 77° E 23:49:09 10° NNE
Cosmos 2123 Rocket 4.3 23:38:58 10° N 23:45:01 48° ENE 23:45:41 46° E
Cosmos 1025 Rocket 3.7 23:45:07 10° N 23:48:39 51° NNE 23:48:39 51° NNE
Meteor 2-21 4.3 23:49:42 68° S 23:50:34 83° E 23:56:48 10° N
Cosmos 1812 4.4 23:48:33 10° NNW 23:51:28 28° WNW 23:51:28 28° WNW
Terra 2.9 23:52:21 35° WSW 23:52:39 35° W 23:57:01 10° NNW
ALOS 2 4.2 23:53:52 26° NE 23:53:52 26° NE 23:56:56 10° NNE
ISS -0.3 23:51:10 10° WNW 23:53:23 17° NNW 23:55:36 10° NNE
Cosmos 2082 Rocket 3.5 23:49:08 10° NW 23:53:55 28° WSW 23:54:52 27° WSW
